Flag for USA

Past Weather in Bridgeport, Connecticut, USA — Yesterday and Last 2 Weeks

Now
60 °F

Sunny.


Feels Like: 60 °F
Forecast: 63 / 45 °F
Wind: 10 mph from Northeast

Location: Sikorsky Memorial Airport
Current Time: Sep 20, 2020 at 1:39:26 pm
Latest Report: Sep 20, 2020 at 12:52 pm
Visibility: 10 mi
Pressure30.53 "Hg
Humidity: 30%
Dew Point: 28 °F
Location of BridgeportLocation

Past Weather in Bridgeport — Graph

°F

Bridgeport Temperature Yesterday

Maximum temperature yesterday: 65 °F (at 3:52 pm)
Minimum temperature yesterday: 47 °F (at 4:52 am)
Average temperature yesterday: 56 °F

High & Low Weather Summary for the Past Weeks

 TemperatureHumidityPressure
High81 °F (Sep 6, 3:52 pm)97% (Sep 10, 5:52 am)30.54 "Hg (Sep 10, 5:52 am)
Low47 °F (Sep 19, 4:52 am)24% (Sep 19, 2:52 pm)29.91 "Hg (Sep 18, 3:52 am)
Average69 °F68%30.18 "Hg
* Reported Sep 5 11:52 am — Sep 20 11:52 am, Bridgeport. Weather by CustomWeather, © 2020

Note: Actual official high and low records may vary slightly from our data, if they occured in-between our weather recording intervals... More about our weather records

Bridgeport Weather History for the Previous 24 Hours

Scroll right to see more
 ConditionsComfort  
Time TempWeatherWind HumidityBarometerVisibility
11:52 am
Sun, Sep 20
61 °FSunny.16 mph30%30.53 "Hg10 mi
10:52 am57 °FSunny.20 mph34%30.54 "Hg10 mi
9:52 am55 °FSunny.16 mph37%30.53 "Hg10 mi
8:52 am53 °FSunny.9 mph43%30.50 "Hg10 mi
7:52 am49 °FSunny.12 mph52%30.49 "Hg10 mi
6:52 am49 °FSunny.12 mph52%30.47 "Hg10 mi
5:52 am50 °FClear.13 mph52%30.45 "Hg10 mi
4:52 am49 °FClear.12 mph55%30.43 "Hg10 mi
3:52 am50 °FClear.12 mph54%30.43 "Hg10 mi
2:52 am50 °FClear.10 mph52%30.42 "Hg10 mi
1:52 am51 °FClear.13 mph50%30.41 "Hg10 mi
12:52 am51 °FClear.10 mph52%30.39 "Hg10 mi
11:52 pm
Sat, Sep 19
53 °FClear.12 mph47%30.38 "Hg10 mi
10:52 pm53 °FClear.10 mph47%30.37 "Hg10 mi
9:52 pm54 °FClear.8 mph49%30.37 "Hg10 mi
8:52 pm56 °FClear.9 mph44%30.35 "Hg10 mi
7:52 pm57 °FClear.6 mph46%30.33 "Hg10 mi
6:52 pm60 °FSunny.8 mph39%30.31 "Hg10 mi
5:52 pm64 °FSunny.10 mph30%30.30 "Hg10 mi
4:52 pm65 °FSunny.5 mph25%30.29 "Hg10 mi
3:52 pm65 °FSunny.6 mph24%30.29 "Hg10 mi
2:52 pm64 °FSunny.8 mph24%30.30 "Hg10 mi
1:52 pm63 °FSunny.13 mph25%30.32 "Hg10 mi
Weather by CustomWeather, © 2020

See weather overview